EW9766 Weather Reports


time (UTC)temp
F
wind
direction
speed
knots
gust
knots
rain 1hr
in
rain 24hr
in
rain mn
in
humidity
%
barometer
mb
20260504000032 80 5 2.6 9.6 0.00 0.00 0.00 29 1012.1
20260503233037 80 37 4.3 8.7 0.00 0.00 0.00 30 1012.4
20260503231531 80 62 4.3 7.0 0.00 0.00 0.00 30 1012.6
20260503230032 80 37 5.2 13.0 0.00 0.00 0.00 30 1012.8
20260503224535 80 36 5.2 12.2 0.00 0.00 0.00 30 1013.0
20260503221534 80 37 7.0 20.0 0.00 0.00 0.00 30 1013.4
20260503214535 80 35 6.1 14.8 0.00 0.00 0.00 30 1013.8
20260503211534 80 76 6.1 13.9 0.00 0.00 0.00 29 1014.1
20260503210105 80 68 6.1 17.4 0.00 0.00 0.00 30 1014.3
20260503204536 80 93 5.2 12.2 0.00 0.00 0.00 30 1014.5
20260503203032 80 88 4.3 12.2 0.00 0.00 0.00 31 1014.6
20260503201535 79 38 7.8 15.6 0.00 0.00 0.00 31 1014.7
20260503200149 79 69 5.2 14.8 0.00 0.00 0.00 31 1015.0
20260503194530 79 68 7.0 12.2 0.00 0.00 0.00 100 1015.1
20260503193032 78 49 5.2 13.0 0.00 0.00 0.00 100 1015.2
20260503191535 78 54 7.0 13.0 0.00 0.00 0.00 100 1015.3
20260503190030 78 38 6.1 13.9 0.00 0.00 0.00 100 1015.4
20260503184535 79 68 3.5 12.2 0.00 0.00 0.00 42 1015.5
20260503183034 78 343 2.6 7.0 0.00 0.00 0.00 35 1015.7
20260503181534 77 59 3.5 8.7 0.00 0.00 0.00 42 1015.7
20260503180036 76 312 4.3 8.7 0.00 0.00 0.00 43 1015.8
20260503174536 75 298 3.5 7.8 0.00 0.00 0.00 45 1015.9
20260503150143 66 315 0.0 2.6 0.00 0.00 0.00 53 1016.3
20260503130146 55 163 6.1 10.4 0.00 0.00 0.00 60 1016.1
20260503081531 56 173 5.2 9.6 0.00 0.00 0.00 60 1016.2
20260503071535 56 145 4.3 7.0 0.00 0.00 0.00 60 1016.3
20260503060106 57 202 0.9 2.6 0.00 0.00 0.00 61 1016.2
20260503054537 58 279 0.0 1.7 0.00 0.00 0.00 59 1016.1
20260503053035 60 180 2.6 4.3 0.00 0.00 0.00 56 1016.0
20260503051536 62 167 3.5 7.0 0.00 0.00 0.00 52 1016.0
20260503050108 64 160 3.5 6.1 0.00 0.00 0.00 50 1016.1
20260503044651 64 143 3.5 7.8 0.00 0.00 0.00 50 1016.1
20260503043034 64 143 5.2 9.6 0.00 0.00 0.00 50 1016.1
20260503041535 64 136 4.3 9.6 0.00 0.00 0.00 51 1015.9
20260503040107 65 145 4.3 7.8 0.00 0.00 0.00 51 1015.8
20260503034536 66 143 4.3 7.8 0.00 0.00 0.00 51 1015.6
20260503033035 66 140 4.3 8.7 0.00 0.00 0.00 51 1015.4
20260503031643 65 142 4.3 8.7 0.00 0.00 0.00 53 1015.1
20260503030036 65 137 4.3 7.0 0.00 0.00 0.00 55 1014.8
20260503023035 67 162 2.6 4.3 0.00 0.00 0.00 51 1014.5
20260503021530 69 177 1.7 3.5 0.00 0.00 0.00 48 1014.5
20260503020032 70 164 1.7 3.5 0.00 0.00 0.00 46 1014.5
20260503014533 71 185 0.9 3.5 0.00 0.00 0.00 46 1014.5
20260503013108 72 187 0.9 2.6 0.00 0.00 0.00 41 1014.4
20260503011642 73 188 0.9 6.1 0.00 0.00 0.00 39 1014.5
20260503010107 73 111 2.6 6.1 0.00 0.00 0.00 38 1014.4
20260503004534 74 41 5.2 9.6 0.00 0.00 0.00 36 1014.4
20260503003034 74 14 6.1 15.6 0.00 0.00 0.00 37 1014.4
20260503001531 74 3 5.2 11.3 0.00 0.00 0.00 36 1014.4